TimeEST,TemperatureF,Dew PointF,Humidity,Sea Level PressureIn,VisibilityMPH,Wind Direction,Wind SpeedMPH,Gust SpeedMPH,PrecipitationIn,Events,Conditions,WindDirDegrees,DateUTC
12:52 AM,1.9,-9.0,60,30.37,10.0,West,8.1,19.6,N/A,,Clear,280,2004-12-28 05:52:00
1:52 AM,1.9,-9.9,58,30.38,10.0,SW,10.4,17.3,N/A,,Mostly Cloudy,230,2004-12-28 06:52:00
2:52 AM,3.0,-5.1,69,30.38,6.0,SW,9.2,-,N/A,,Haze,230,2004-12-28 07:52:00
3:52 AM,3.9,-5.1,66,30.37,6.0,West,12.7,17.3,N/A,,Haze,260,2004-12-28 08:52:00
4:52 AM,5.0,-4.0,66,30.38,9.0,West,10.4,-,N/A,,Overcast,280,2004-12-28 09:52:00
5:52 AM,6.1,-2.0,69,30.38,4.0,West,9.2,20.7,N/A,,Haze,270,2004-12-28 10:52:00
6:33 AM,6.8,-0.4,72,30.30,4.0,Variable,3.5,-,N/A,,Haze,0,2004-12-28 11:33:00
6:52 AM,5.0,-0.9,76,30.40,5.0,SE,3.5,-,N/A,,Haze,140,2004-12-28 11:52:00
7:52 AM,3.9,-0.9,80,30.42,4.0,SSE,4.6,-,N/A,,Haze,150,2004-12-28 12:52:00
8:52 AM,6.1,-0.9,73,30.44,10.0,SE,4.6,-,N/A,,Overcast,140,2004-12-28 13:52:00
9:52 AM,9.0,1.0,70,30.44,5.0,SW,5.8,-,N/A,,Haze,230,2004-12-28 14:52:00
10:17 AM,10.4,1.4,67,30.34,2.5,Calm,Calm,-,0.00,Snow,Light Snow,0,2004-12-28 15:17:00
10:32 AM,10.4,1.4,67,30.33,5.0,Calm,Calm,-,0.00,,Haze,0,2004-12-28 15:32:00
10:52 AM,10.9,1.9,67,30.42,10.0,South,4.6,-,0.00,,Overcast,180,2004-12-28 15:52:00
11:33 AM,12.2,3.2,67,30.32,9.0,Calm,Calm,-,N/A,,Overcast,0,2004-12-28 16:33:00
11:44 AM,14.0,3.2,62,30.31,5.0,Calm,Calm,-,N/A,,Haze,0,2004-12-28 16:44:00
11:52 AM,14.0,5.0,67,30.40,3.0,Calm,Calm,-,0.00,Snow,Light Snow,0,2004-12-28 16:52:00
12:13 PM,15.8,6.8,68,30.30,2.5,Calm,Calm,-,0.00,Snow,Light Snow,0,2004-12-28 17:13:00
12:41 PM,15.8,6.8,68,30.29,5.0,Calm,Calm,-,0.00,Snow,Light Snow,0,2004-12-28 17:41:00
12:52 PM,16.0,7.0,68,30.37,5.0,Calm,Calm,-,0.00,Snow,Light Snow,0,2004-12-28 17:52:00
1:52 PM,16.0,9.0,74,30.33,10.0,Calm,Calm,-,0.00,,Overcast,0,2004-12-28 18:52:00
2:52 PM,17.1,9.0,71,30.31,10.0,NW,3.5,-,N/A,,Scattered Clouds,310,2004-12-28 19:52:00
3:52 PM,15.1,9.0,77,30.28,10.0,Calm,Calm,-,N/A,,Clear,0,2004-12-28 20:52:00
4:52 PM,10.0,8.1,92,30.26,10.0,Calm,Calm,-,N/A,,Partly Cloudy,0,2004-12-28 21:52:00
5:52 PM,9.0,7.0,92,30.24,10.0,Calm,Calm,-,N/A,,Mostly Cloudy,0,2004-12-28 22:52:00
6:52 PM,12.9,9.0,84,30.20,10.0,West,3.5,-,N/A,,Overcast,270,2004-12-28 23:52:00
7:52 PM,9.0,6.1,88,30.17,10.0,Calm,Calm,-,N/A,,Partly Cloudy,0,2004-12-29 00:52:00
8:52 PM,9.0,7.0,92,30.13,9.0,Calm,Calm,-,N/A,,Overcast,0,2004-12-29 01:52:00
9:52 PM,10.9,8.1,88,30.10,10.0,Calm,Calm,-,N/A,,Overcast,0,2004-12-29 02:52:00
10:52 PM,14.0,10.0,84,30.07,10.0,Calm,Calm,-,N/A,,Overcast,0,2004-12-29 03:52:00
11:52 PM,16.0,12.0,84,30.03,10.0,Calm,Calm,-,N/A,,Overcast,0,2004-12-29 04:52:00